Find USA 577

NORAD ID: 67489 Int'l Des: 2026-011 Owner: NROC Country: US operational
LEOCIRCULAR

当前视图

正在加载3D地球...

关于 USA 577

正在加载描述...

即将过境

Passes for default location (London). Set your location on the main map for personalized predictions.

高度历史

Loading altitude history...

两行轨道根数

1 67489C 26012F 26027.43381944 -.01310700 00000+0 -23652-2 0 273
2 67489 42.9975 194.9056 0001241 281.7582 197.1039 16.01884947 16
Epoch: Jan 27, 2026 • Age: 2866 hours

当前状态

高度 155986814.2 km
速度 0.05 km/s
星下点 -37.94°S, 98.66°W
发射日期 Jan 17, 2026
运行时间 0.3 years
类型 military

技术详情

分类 Payload
质量 800.00 kg
干质量 750.00 kg
总质量 800.00 kg
长度 0.30 m
直径 4.10 m
跨度 29.00 m
形状 Box + pan
制造商 SPXS
平台类型 Starshield
阶段状态 In Orbit
所有者/国家 NROC/US

Most Searched